GW4543 Weather Reports


time (UTC)temp
F
wind
direction
speed
knots
gust
knots
rain 1hr
in
rain 24hr
in
rain mn
in
humidity
%
barometer
mb
20260506024518 69 207 0.9 6.1 0.00 0.00 0.00 75 1009.8
20260506024014 69 201 0.9 5.2 0.00 0.00 0.00 75 1009.8
20260506023510 69 354 2.6 4.3 0.00 0.00 0.00 75 1009.8
20260506023008 69 50 2.6 6.1 0.00 0.00 0.00 74 1009.4
20260506022505 70 32 3.5 7.0 0.00 0.00 0.00 74 1009.8
20260506022002 70 77 4.3 7.8 0.00 0.00 0.00 75 1009.4
20260506021500 70 140 2.6 6.1 0.00 0.00 0.00 75 1009.4
20260506020957 71 84 3.5 7.0 0.00 0.00 0.00 75 1009.4
20260506020454 71 65 1.7 6.1 0.00 0.00 0.00 75 1009.0
20260506015951 71 71 3.5 5.2 0.00 0.00 0.00 74 1008.7
20260506015449 71 40 2.6 6.1 0.00 0.00 0.00 74 1008.7
20260506014945 72 163 3.5 5.2 0.00 0.00 0.00 74 1008.4
20260506014442 72 160 0.9 4.3 0.00 0.00 0.00 73 1008.4
20260506013939 72 160 1.7 5.2 0.00 0.00 0.00 72 1008.4
20260506013437 73 22 5.2 7.0 0.00 0.00 0.00 72 1008.0
20260506012933 73 150 0.9 5.2 0.00 0.00 0.00 72 1008.0
20260506012429 73 178 2.6 4.3 0.00 0.00 0.00 73 1008.0
20260506011926 73 220 0.9 5.2 0.00 0.00 0.00 72 1008.0
20260506011424 73 193 0.0 2.6 0.00 0.00 0.00 71 1007.7
20260506010920 73 312 4.3 7.0 0.00 0.00 0.00 71 1007.4
20260506010420 74 302 2.6 5.2 0.00 0.00 0.00 71 1007.7
20260506005915 74 14 2.6 4.3 0.00 0.00 0.00 71 1007.7
20260506005413 74 300 2.6 5.2 0.00 0.00 0.00 71 1007.7
20260506004908 75 51 3.5 5.2 0.00 0.00 0.00 71 1007.4
20260506004407 75 48 5.2 8.7 0.00 0.00 0.00 70 1007.4
20260506003902 75 262 1.7 7.8 0.00 0.00 0.00 70 1007.4
20260506003358 75 293 4.3 6.1 0.00 0.00 0.00 69 1007.0
20260506002855 76 19 1.7 4.3 0.00 0.00 0.00 68 1007.0
20260506002351 76 255 1.7 5.2 0.00 0.00 0.00 66 1007.4
20260506001847 76 53 0.9 4.3 0.00 0.00 0.00 66 1007.0
20260506001344 77 45 1.7 4.3 0.00 0.00 0.00 66 1006.7
20260506000841 77 159 0.9 2.6 0.00 0.00 0.00 66 1007.0
20260506000340 77 49 1.7 4.3 0.00 0.00 0.00 65 1007.0
20260505235835 77 147 2.6 7.8 0.00 0.00 0.00 65 1007.0
20260505235333 78 125 5.2 7.8 0.00 0.00 0.00 66 1007.0
20260505234830 78 184 1.7 5.2 0.00 0.00 0.00 66 1007.0
20260505234328 79 54 2.6 7.8 0.00 0.00 0.00 65 1006.7
20260505233824 79 139 3.5 7.8 0.00 0.00 0.00 65 1006.7
20260505233322 80 290 1.7 7.8 0.00 0.00 0.00 66 1006.3
20260505232819 80 192 2.6 8.7 0.00 0.00 0.00 65 1006.3
20260505232317 80 315 5.2 7.8 0.00 0.00 0.00 65 1006.7
20260505231813 81 327 0.9 5.2 0.00 0.00 0.00 66 1006.3
20260505231312 81 215 1.7 7.0 0.00 0.00 0.00 66 1006.3
20260505230810 82 19 5.2 7.0 0.00 0.00 0.00 65 1006.3
20260505230306 84 336 5.2 9.6 0.00 0.00 0.00 63 1006.0
20260505225803 84 304 2.6 6.1 0.00 0.00 0.00 60 1005.7
20260505225300 84 173 2.6 4.3 0.00 0.00 0.00 57 1006.0
20260505224755 84 350 0.9 6.1 0.00 0.00 0.00 56 1006.0
20260505224253 84 294 6.1 8.7 0.00 0.00 0.00 54 1006.0
20260505223750 86 183 4.3 7.8 0.00 0.00 0.00 54 1005.7
20260505223247 86 136 2.6 5.2 0.00 0.00 0.00 53 1005.7
20260505222743 86 118 1.7 6.1 0.00 0.00 0.00 53 1005.7
20260505222239 87 341 5.2 7.0 0.00 0.00 0.00 52 1005.7
20260505221736 89 267 4.3 7.0 0.00 0.00 0.00 52 1005.7
20260505221233 92 171 0.9 0.9 0.00 0.00 0.00 50 1005.3
20260505220729 92 251 2.6 2.6 0.00 0.00 0.00 51 1005.3
20260505220227 91 202 0.9 1.7 0.00 0.00 0.00 52 1005.0
20260505215725 90 216 0.9 2.6 0.00 0.00 0.00 52 1005.3
20260505215223 90 292 2.6 2.6 0.00 0.00 0.00 52 1005.3
20260505214720 90 202 0.9 2.6 0.00 0.00 0.00 53 1005.3
20260505214218 90 175 1.7 1.7 0.00 0.00 0.00 52 1005.7
20260505213715 90 240 1.7 2.6 0.00 0.00 0.00 51 1005.3
20260505213212 91 248 1.7 2.6 0.00 0.00 0.00 50 1005.7
20260505212708 91 300 1.7 5.2 0.00 0.00 0.00 52 1005.7
20260505212205 91 311 3.5 5.2 0.00 0.00 0.00 50 1005.7
20260505211702 91 244 0.9 4.3 0.00 0.00 0.00 50 1005.7
20260505211159 91 190 0.9 4.3 0.00 0.00 0.00 51 1005.7
20260505210656 91 354 3.5 6.1 0.00 0.00 0.00 48 1005.7
20260505210153 92 298 2.6 4.3 0.00 0.00 0.00 49 1005.7
20260505205650 92 299 2.6 4.3 0.00 0.00 0.00 49 1006.0
20260505205148 92 284 3.5 5.2 0.00 0.00 0.00 49 1006.0
20260505204644 92 184 2.6 4.3 0.00 0.00 0.00 52 1006.0
20260505204143 92 204 1.7 4.3 0.00 0.00 0.00 52 1006.0
20260505203639 92 234 0.9 2.6 0.00 0.00 0.00 51 1006.3
20260505203136 92 241 1.7 2.6 0.00 0.00 0.00 51 1006.0
20260505202632 92 215 1.7 5.2 0.00 0.00 0.00 53 1006.3
20260505202128 91 134 1.7 2.6 0.00 0.00 0.00 51 1006.0
20260505201625 92 246 4.3 7.0 0.00 0.00 0.00 51 1006.3
20260505201123 92 209 1.7 1.7 0.00 0.00 0.00 54 1006.7
20260505200620 91 204 1.7 5.2 0.00 0.00 0.00 53 1006.3
20260505200117 90 212 2.6 4.3 0.00 0.00 0.00 52 1006.3
20260505195608 91 200 3.5 6.1 0.00 0.00 0.00 52 1006.3
20260505195105 91 202 0.9 4.3 0.00 0.00 0.00 55 1006.3
20260505194556 91 233 1.7 5.2 0.00 0.00 0.00 55 1006.7
20260505194052 91 185 3.5 6.1 0.00 0.00 0.00 54 1006.7
20260505193549 91 197 0.9 1.7 0.00 0.00 0.00 56 1006.7
20260505193046 90 197 2.6 6.1 0.00 0.00 0.00 56 1006.7
20260505192545 91 251 1.7 7.8 0.00 0.00 0.00 56 1006.7
20260505192042 91 201 1.7 2.6 0.00 0.00 0.00 56 1006.7
20260505191540 90 179 1.7 6.1 0.00 0.00 0.00 56 1006.7
20260505191038 90 318 2.6 8.7 0.00 0.00 0.00 57 1006.7
20260505190537 89 190 1.7 5.2 0.00 0.00 0.00 59 1006.7
20260505190034 89 294 2.6 6.1 0.00 0.00 0.00 58 1006.7
20260505185531 88 100 2.6 9.6 0.00 0.00 0.00 59 1006.7
20260505185027 88 231 0.9 2.6 0.00 0.00 0.00 59 1006.7
20260505184524 89 214 4.3 7.0 0.00 0.00 0.00 60 1006.7
20260505184021 88 96 2.6 7.0 0.00 0.00 0.00 59 1006.7
20260505183518 88 207 4.3 5.2 0.00 0.00 0.00 62 1007.0
20260505183015 88 136 1.7 7.0 0.00 0.00 0.00 64 1007.0
20260505182511 87 220 2.6 5.2 0.00 0.00 0.00 64 1006.7
20260505182009 87 334 2.6 7.0 0.00 0.00 0.00 64 1007.0
20260505181505 87 184 5.2 7.8 0.00 0.00 0.00 65 1007.0
20260505181002 87 214 3.5 6.1 0.00 0.00 0.00 65 1007.0
20260505180457 87 27 1.7 7.0 0.00 0.00 0.00 66 1007.0
20260505175955 86 155 0.9 6.1 0.00 0.00 0.00 69 1007.0
20260505175451 85 172 1.7 7.0 0.00 0.00 0.00 69 1007.0
20260505174948 86 123 2.6 6.1 0.00 0.00 0.00 69 1007.0
20260505174445 86 146 2.6 2.6 0.00 0.00 0.00 70 1007.4
20260505173941 84 186 2.6 5.2 0.00 0.00 0.00 69 1007.4
20260505173437 84 166 0.9 7.0 0.00 0.00 0.00 70 1007.4
20260505172934 84 163 2.6 4.3 0.00 0.00 0.00 71 1007.4
20260505172433 84 174 4.3 6.1 0.00 0.00 0.00 71 1007.4
20260505171932 83 191 3.5 6.1 0.00 0.00 0.00 72 1007.7
20260505171429 82 212 4.3 7.0 0.00 0.00 0.00 73 1007.4
20260505170926 82 194 1.7 6.1 0.00 0.00 0.00 74 1007.4
20260505170422 82 359 1.7 4.3 0.00 0.00 0.00 74 1007.4
20260505165918 82 174 1.7 4.3 0.00 0.00 0.00 74 1007.0
20260505165414 82 211 3.5 6.1 0.00 0.00 0.00 74 1007.7
20260505164909 82 189 2.6 5.2 0.00 0.00 0.00 74 1007.4
20260505164406 82 198 0.9 7.0 0.00 0.00 0.00 75 1007.4
20260505163904 82 186 3.5 6.1 0.00 0.00 0.00 75 1007.0
20260505163403 82 253 2.6 7.0 0.00 0.00 0.00 75 1007.0
20260505162901 82 159 1.7 2.6 0.00 0.00 0.00 75 1007.0
20260505162357 81 277 1.7 5.2 0.00 0.00 0.00 77 1007.0
20260505161854 80 83 2.6 7.0 0.00 0.00 0.00 77 1007.0
20260505161351 80 177 4.3 5.2 0.00 0.00 0.00 77 1006.7
20260505160848 80 210 1.7 4.3 0.00 0.00 0.00 78 1007.0
20260505160347 80 245 1.7 5.2 0.00 0.00 0.00 78 1006.7
20260505153325 77 197 0.9 6.1 0.00 0.00 0.00 82 1006.7
20260505152822 77 203 1.7 2.6 0.00 0.00 0.00 83 1006.7
20260505152319 76 225 1.7 7.0 0.00 0.00 0.00 83 1007.0
20260505151813 76 219 2.6 7.0 0.00 0.00 0.00 83 1007.0
20260505151310 76 246 5.2 7.8 0.00 0.00 0.00 83 1007.0
20260505150807 77 204 3.5 7.0 0.00 0.00 0.00 83 1007.0
20260505150304 76 300 2.6 7.8 0.00 0.00 0.00 83 1007.0
20260505140229 73 220 2.6 7.0 0.00 0.00 0.00 89 1006.7
20260505130152 71 248 4.3 6.1 0.00 0.00 0.00 92 1006.3
20260505124637 70 174 2.6 6.1 0.00 0.00 0.00 93 1006.3
20260505124134 70 166 1.7 5.2 0.00 0.00 0.00 93 1006.3
20260505123629 70 254 6.1 8.7 0.00 0.00 0.00 93 1006.0
20260505123126 70 185 2.6 5.2 0.00 0.00 0.00 93 1006.3
20260505122622 70 99 0.9 11.3 0.00 0.00 0.00 93 1006.0
20260505122120 70 157 2.6 7.0 0.00 0.00 0.00 93 1006.0
20260505121616 70 193 2.6 5.2 0.00 0.00 0.00 93 1006.0
20260505121113 70 210 3.5 6.1 0.00 0.00 0.00 93 1006.0
20260505120609 70 163 0.9 4.3 0.00 0.00 0.00 93 1006.0
20260505120105 70 155 0.9 2.6 0.00 0.00 0.00 93 1006.0
20260505115600 70 182 2.6 5.2 0.00 0.00 0.00 93 1006.0
20260505115057 70 159 1.7 4.3 0.00 0.00 0.00 93 1005.7
20260505114549 70 205 1.7 7.0 0.00 0.00 0.00 93 1005.7
20260505114045 70 203 3.5 9.6 0.00 0.00 0.00 93 1006.0
20260505113541 70 230 1.7 5.2 0.00 0.00 0.00 93 1006.0
20260505113038 70 219 0.9 4.3 0.00 0.00 0.00 93 1005.7
20260505112535 70 266 3.5 5.2 0.00 0.00 0.00 93 1006.0
20260505112033 70 248 0.9 6.1 0.00 0.00 0.00 93 1005.7
20260505111531 70 184 1.7 5.2 0.00 0.00 0.00 93 1005.7
20260505111028 70 171 3.5 5.2 0.00 0.00 0.00 93 1005.7
20260505110525 70 193 0.9 2.6 0.00 0.00 0.00 93 1005.7
20260505101952 69 167 1.7 2.6 0.00 0.00 0.00 94 1005.7
20260505101449 69 272 1.7 6.1 0.00 0.00 0.00 94 1005.7
20260505100945 69 232 0.9 5.2 0.00 0.00 0.00 94 1005.7
20260505100443 69 275 2.6 4.3 0.00 0.00 0.00 94 1005.7
20260505095939 69 195 1.7 4.3 0.00 0.00 0.00 94 1006.0
20260505095436 69 218 1.7 4.3 0.00 0.00 0.00 94 1006.0
20260505094932 69 220 0.9 4.3 0.00 0.00 0.00 94 1005.7
20260505094429 69 207 0.9 6.1 0.00 0.00 0.00 94 1006.0
20260505093925 69 135 1.7 2.6 0.00 0.00 0.00 94 1006.0
20260505093422 69 190 0.0 0.9 0.00 0.00 0.00 94 1006.0
20260505092920 69 221 0.9 5.2 0.00 0.00 0.00 94 1006.0
20260505092418 69 202 1.7 5.2 0.00 0.00 0.00 93 1006.0
20260505091915 69 195 1.7 5.2 0.00 0.00 0.00 93 1006.3
20260505091412 69 199 0.9 1.7 0.00 0.00 0.00 93 1006.0
20260505090910 69 209 1.7 2.6 0.00 0.00 0.00 93 1006.3
20260505090408 69 173 2.6 5.2 0.00 0.00 0.00 93 1006.3
20260505085905 69 177 0.9 1.7 0.00 0.00 0.00 93 1006.3
20260505085402 70 182 0.9 2.6 0.00 0.00 0.00 92 1006.3
20260505084901 70 200 1.7 5.2 0.00 0.00 0.00 92 1006.3
20260505084359 70 42 2.6 2.6 0.00 0.00 0.00 92 1006.0
20260505083856 70 206 1.7 4.3 0.00 0.00 0.00 92 1006.3
20260505083353 70 223 2.6 5.2 0.00 0.00 0.00 91 1006.3
20260505082849 70 177 0.9 2.6 0.00 0.00 0.00 91 1006.3
20260505082345 70 205 2.6 5.2 0.00 0.00 0.00 91 1006.3
20260505081842 70 126 4.3 6.1 0.00 0.00 0.00 90 1006.3
20260505081339 71 223 2.6 4.3 0.00 0.00 0.00 90 1006.3
20260505080836 71 147 1.7 5.2 0.00 0.00 0.00 89 1006.7
20260505080331 71 206 0.9 1.7 0.00 0.00 0.00 89 1006.3
20260505075827 71 175 1.7 5.2 0.00 0.00 0.00 88 1006.3
20260505075324 71 190 0.9 4.3 0.00 0.00 0.00 88 1006.3
20260505074822 71 189 1.7 7.0 0.00 0.00 0.00 88 1006.7
20260505074319 71 199 0.9 4.3 0.00 0.00 0.00 87 1006.7
20260505073816 71 299 2.6 6.1 0.00 0.00 0.00 87 1006.7
20260505073314 71 215 2.6 7.0 0.00 0.00 0.00 86 1006.7
20260505072810 71 189 0.0 4.3 0.00 0.00 0.00 86 1006.7
20260505072306 71 172 2.6 4.3 0.00 0.00 0.00 86 1007.0
20260505071802 71 186 2.6 5.2 0.00 0.00 0.00 85 1007.0
20260505071259 71 191 3.5 4.3 0.00 0.00 0.00 85 1007.0
20260505070757 71 197 0.9 1.7 0.00 0.00 0.00 85 1006.7
20260505070253 72 222 1.7 1.7 0.00 0.00 0.00 85 1007.4
20260505065748 72 198 1.7 6.1 0.00 0.00 0.00 85 1007.0
20260505065246 72 224 2.6 4.3 0.00 0.00 0.00 84 1007.4
20260505064743 71 149 3.5 5.2 0.00 0.00 0.00 84 1007.4
20260505064240 72 191 0.9 5.2 0.00 0.00 0.00 84 1007.4
20260505063738 72 179 1.7 6.1 0.00 0.00 0.00 84 1007.4
20260505063234 72 153 1.7 6.1 0.00 0.00 0.00 83 1007.7
20260505062730 72 198 1.7 5.2 0.00 0.00 0.00 83 1007.7
20260505062228 72 206 0.9 4.3 0.00 0.00 0.00 83 1007.7
20260505061725 72 222 4.3 6.1 0.00 0.00 0.00 83 1007.7
20260505061223 72 180 1.7 2.6 0.00 0.00 0.00 83 1007.7
20260505060720 72 193 1.7 4.3 0.00 0.00 0.00 82 1007.7
20260505060217 72 159 2.6 6.1 0.00 0.00 0.00 82 1007.7
20260505055712 72 215 1.7 5.2 0.00 0.00 0.00 82 1007.7
20260505055209 72 198 2.6 5.2 0.00 0.00 0.00 82 1007.4
20260505054706 73 56 1.7 2.6 0.00 0.00 0.00 82 1007.7
20260505054204 73 199 2.6 4.3 0.00 0.00 0.00 82 1007.4
20260505053656 73 159 3.5 7.8 0.00 0.00 0.00 81 1007.4
20260505053152 73 184 4.3 6.1 0.00 0.00 0.00 81 1007.4
20260505052649 73 199 4.3 7.0 0.00 0.00 0.00 81 1007.7
20260505052146 73 55 0.9 2.6 0.00 0.00 0.00 81 1007.0
20260505051643 73 160 1.7 4.3 0.00 0.00 0.00 81 1007.0
20260505051141 73 209 1.7 2.6 0.00 0.00 0.00 81 1007.4
20260505050639 73 136 3.5 5.2 0.00 0.00 0.00 81 1007.7
20260505050138 74 189 1.7 6.1 0.00 0.00 0.00 80 1007.7
20260505041612 75 182 2.6 7.0 0.00 0.00 0.00 78 1007.7
20260505041110 75 214 1.7 4.3 0.00 0.00 0.00 79 1007.7
20260505040607 75 147 1.7 2.6 0.00 0.00 0.00 79 1007.7
20260505040104 75 200 2.6 4.3 0.00 0.00 0.00 78 1007.4
20260505035600 75 194 0.9 7.8 0.00 0.00 0.00 78 1007.7
20260505035057 75 242 3.5 5.2 0.00 0.00 0.00 78 1007.7
20260505034553 75 98 1.7 5.2 0.00 0.00 0.00 78 1007.7
20260505034050 75 204 2.6 7.8 0.00 0.00 0.00 78 1007.7
20260505033547 75 218 1.7 4.3 0.00 0.00 0.00 78 1007.7
20260505033045 75 197 2.6 6.1 0.00 0.00 0.00 78 1007.7
20260505032543 75 173 2.6 7.0 0.00 0.00 0.00 78 1007.4
20260505032039 75 198 1.7 5.2 0.00 0.00 0.00 78 1007.7
20260505031537 75 190 1.7 5.2 0.00 0.00 0.00 78 1007.7
20260505031033 75 181 0.9 6.1 0.00 0.00 0.00 78 1007.7
20260505030530 75 213 1.7 7.0 0.00 0.00 0.00 78 1007.7
20260505030026 75 182 1.7 5.2 0.00 0.00 0.00 77 1007.4
20260505025522 75 181 1.7 4.3 0.00 0.00 0.00 77 1007.7
20260505025021 75 206 2.6 6.1 0.00 0.00 0.00 77 1007.7